Wind_Speed
14 15 16 16 16 16 16 17 17 17 17 18 18 18 18 19 19 19 19 19 19 19 20 20 20 20 21 21 22 22 22 22 23 24 24 24 24 24 25 26 28 30 32
16 17 18 18 18 19 19 19 20 20 20 21 21 21 21 22 22 22 22 22 22 22 22 22 22 23 23 23 23 23 24 24 25 26 26 26 26 26 26 27 28 29 31
18 19 20 20 21 21 22 22 23 23 23 24 24 24 24 25 25 25 25 25 24 24 25 25 25 25 25 25 25 25 26 26 27 27 28 29 29 28 28 28 29 30 31
19 20 21 22 23 24 24 25 25 25 26 26 26 26 27 27 27 27 27 27 27 27 27 27 27 27 28 28 28 28 28 28 28 29 30 30 30 30 30 30 30 31 32
21 22 23 24 25 26 27 27 27 28 28 28 28 29 29 29 29 29 29 29 29 29 29 29 30 30 30 31 31 31 30 30 30 31 31 32 33 32 32 32 32 32 33
23 24 26 26 27 28 28 29 29 30 30 30 30 31 31 31 31 31 31 31 31 31 31 32 32 32 33 33 33 33 33 33 33 33 33 34 34 34 34 34 34 34 34
26 27 28 29 29 30 30 31 31 32 32 32 32 32 31 31 32 33 33 33 34 34 34 34 34 35 35 36 36 36 36 36 36 35 35 36 36 36 36 36 35 35 35
29 30 30 30 31 32 32 33 33 33 33 33 33 33 33 33 34 35 35 36 36 37 37 37 37 38 39 39 38 38 38 38 38 37 37 38 38 38 38 37 37 36 36
32 32 32 32 33 34 35 35 35 34 34 35 35 36 36 36 37 38 39 39 40 40 40 41 41 41 42 42 42 41 41 41 41 40 40 40 40 40 40 39 38 38 37
35 34 34 35 35 35 36 37 37 37 37 38 38 39 39 40 40 42 43 43 43 43 44 44 44 44 45 45 45 44 44 44 45 44 42 42 41 41 41 41 40 39 38
36 37 37 37 38 38 38 38 39 40 41 41 42 42 42 43 44 45 46 47 48 48 48 47 47 47 47 48 48 48 47 47 47 46 45 44 43 43 43 42 42 41 40
36 37 37 37 38 40 41 41 41 41 43 43 44 44 46 47 47 48 50 51 51 52 51 51 51 51 51 51 51 51 51 51 50 49 47 46 46 45 45 44 43 42 41
37 38 38 39 39 40 41 42 43 44 44 45 46 48 49 50 51 52 53 54 55 55 55 56 55 55 55 55 55 54 54 54 53 51 50 49 48 48 47 46 45 43 42
35 37 38 38 38 40 41 43 44 46 47 48 49 50 52 53 54 56 57 58 59 59 59 59 59 60 60 59 58 58 57 55 55 54 53 51 50 49 47 47 46 45 43
35 36 38 39 41 42 43 44 46 47 48 50 52 53 55 56 58 59 60 61 62 63 64 64 64 64 64 63 61 60 59 57 57 56 55 53 51 50 49 48 47 46 44
37 39 40 41 42 43 45 46 48 50 52 54 56 57 59 60 62 63 64 65 66 66 67 67 67 66 65 64 63 62 60 59 57 56 55 53 51 50 49 48 47 45 44
38 40 41 43 44 46 48 50 52 53 55 58 60 61 63 64 66 66 67 68 68 68 69 68 68 66 65 64 63 61 59 58 56 55 54 52 50 49 48 47 45 44 42
41 42 44 46 48 49 51 53 56 57 59 61 63 64 65 66 67 67 68 68 68 68 68 67 66 64 62 61 60 59 57 56 54 52 50 49 49 48 47 47 46 44 43
44 46 48 49 51 53 56 58 60 62 63 64 65 66 66 66 66 65 65 65 65 65 64 63 61 60 58 56 54 53 52 51 50 50 48 47 47 47 46 45 44 43 42
47 49 51 53 55 57 59 61 63 63 64 64 64 64 63 63 62 62 61 61 60 59 57 56 54 53 51 50 48 47 46 45 45 45 45 45 45 44 43 43 43 43 41
51 53 55 56 58 59 61 62 62 61 61 60 59 59 59 58 58 57 56 55 53 51 50 48 47 46 45 44 43 41 40 39 39 39 39 39 39 39 39 39 39 38 37
54 55 56 57 58 58 58 57 57 56 55 54 53 52 52 51 50 49 47 46 43 42 41 39 38 37 36 34 34 33 33 33 33 33 32 32 32 33 34 35 34 33 34
54 54 55 55 55 54 53 52 51 49 49 48 46 45 44 43 42 41 39 38 36 35 33 31 30 29 27 26 26 26 27 26 26 26 27 28 28 30 30 30 30 30 31
51 51 50 50 49 48 47 46 45 43 43 41 40 39 39 38 36 34 33 31 29 28 27 26 25 24 22 20 21 21 20 21 21 22 23 23 24 25 26 26 27 27 28
47 46 45 44 44 43 42 40 39 38 36 36 35 34 33 31 29 27 26 24 22 21 20 19 19 18 17 16 16 15 15 16 18 19 19 20 21 22 23 25 26 26 26
42 41 40 40 39 38 36 35 34 33 32 31 29 28 26 24 23 21 19 18 17 15 14 14 13 11 11 10 11 11 12 12 13 15 16 17 18 19 20 22 23 24 24
Wind_Direction
238 240 242 244 247 252 255 259 262 264 267 270 274 278 281 284 286 288 291 295 297 300 302 303 304 305 306 305 304 302 300 298 297 296 294 292 290 288 285 281 278 275 272
247 248 248 250 252 256 259 262 264 267 270 272 275 278 281 284 285 286 288 291 293 297 299 300 301 302 303 303 303 301 300 298 296 295 294 293 292 290 289 285 282 278 275
253 254 255 256 258 260 262 264 266 269 272 274 276 279 282 284 285 286 288 290 292 294 296 297 299 300 301 301 301 301 300 298 296 295 293 292 292 291 291 289 285 282 278
259 259 260 260 261 262 264 266 268 271 273 276 278 280 283 284 286 287 288 290 291 293 295 297 297 299 300 300 300 300 299 298 297 295 293 292 291 292 292 290 288 285 281
264 263 263 264 265 266 267 269 271 273 275 277 279 281 283 285 286 286 288 290 291 293 294 296 296 297 298 299 298 298 298 297 297 295 293 292 291 292 292 291 289 287 284
267 267 267 267 267 268 269 271 273 274 277 278 280 282 284 285 286 287 288 290 291 292 293 294 295 295 296 297 297 296 296 296 296 295 293 291 290 291 291 290 289 288 285
265 267 268 268 268 269 271 273 274 276 279 281 282 284 285 285 286 287 288 290 291 292 292 293 294 295 294 294 294 294 294 294 294 294 293 291 290 290 290 290 289 288 286
267 267 267 269 270 272 272 273 275 277 279 281 282 284 285 285 286 287 287 289 290 291 292 292 293 294 293 292 292 292 293 293 293 293 292 291 290 289 289 289 288 287 286
267 267 267 269 271 273 273 274 275 277 279 281 282 283 284 285 287 288 288 288 289 290 290 291 292 292 292 291 290 291 292 292 292 291 291 290 289 288 288 288 287 287 286
266 266 267 268 269 271 272 274 277 278 279 281 283 283 283 285 286 287 288 288 289 289 290 290 290 290 289 288 289 289 290 290 290 290 289 288 288 287 286 286 286 285 284
266 266 266 266 269 271 273 274 277 279 280 281 282 283 283 285 286 287 288 287 288 288 289 288 288 288 287 286 287 288 288 288 287 287 286 285 285 285 285 284 284 284 283
269 270 269 270 273 274 276 277 279 280 281 282 283 284 285 286 286 286 287 287 287 288 288 287 287 287 286 286 286 286 286 286 285 285 284 284 283 283 283 282 282 282 281
270 271 270 271 273 276 277 280 282 283 283 284 285 285 286 286 287 287 287 287 287 287 287 287 286 285 285 285 285 285 285 284 284 283 283 282 282 281 281 281 280 279 279
273 274 275 277 279 281 281 283 285 285 285 285 286 286 287 286 286 286 286 286 286 286 286 286 285 285 285 284 284 283 283 282 282 281 281 280 280 279 279 279 279 277 277
281 281 281 283 285 284 284 285 286 286 287 287 287 287 287 286 286 286 286 286 285 285 285 285 284 284 283 283 282 282 281 280 279 279 279 278 277 277 277 277 276 275 275
281 282 283 285 286 286 287 288 287 288 288 288 288 287 287 287 286 286 286 285 285 284 284 284 284 283 282 282 281 279 279 278 277 276 276 275 274 273 272 273 273 273 273
286 287 288 288 289 289 289 289 289 289 289 289 289 289 288 288 287 287 286 285 285 284 284 284 283 283 282 281 280 278 277 275 274 272 271 270 269 269 269 269 270 271 271
289 290 290 290 290 290 290 290 290 290 290 290 289 289 288 288 287 287 287 286 286 285 285 285 284 283 282 280 279 277 275 273 271 268 267 266 266 266 266 267 267 268 269
291 291 292 292 292 292 292 292 292 291 291 291 290 290 289 289 289 288 288 288 288 287 286 286 284 283 282 280 278 276 274 271 268 265 263 262 262 262 262 263 264 266 267
293 293 294 294 294 294 293 293 293 293 292 292 292 292 291 291 290 290 289 289 289 288 287 286 284 283 281 279 277 275 272 269 267 264 263 260 258 259 261 263 264 264 265
296 296 296 296 295 295 295 295 295 294 294 294 294 294 293 293 292 292 292 291 291 289 287 286 284 282 280 278 276 272 270 268 265 264 261 260 258 258 259 261 262 262 261
298 298 297 297 297 297 297 296 297 297 297 297 298 298 297 297 296 295 294 293 292 291 290 288 286 284 282 278 273 269 268 266 263 260 258 256 256 256 257 258 259 259 260
299 299 299 298 298 298 299 299 299 299 300 300 300 300 301 301 300 298 297 296 294 294 292 290 288 285 281 277 272 266 265 261 258 255 256 257 256 255 254 255 256 257 259
300 300 300 300 300 300 301 301 302 302 303 303 303 303 304 304 302 300 299 297 295 294 293 291 287 285 283 278 272 265 261 258 254 253 254 255 255 255 253 254 256 259 260
300 300 301 301 302 303 303 304 304 304 305 306 307 308 308 309 308 306 304 302 299 296 295 294 291 288 282 276 272 267 261 256 252 251 252 254 254 253 253 255 258 261 261
301 302 302 303 304 304 305 305 306 306 307 308 310 312 314 315 315 313 311 309 306 303 300 302 301 295 287 278 272 266 261 259 258 255 254 254 254 255 256 257 260 261 262
Height
5860 5861 5862 5863 5864 5864 5864 5864 5864 5864 5864 5863 5862 5861 5860 5859 5858 5856 5855 5853 5851 5849 5847 5845 5843 5840 5838 5836 5834 5831 5829 5827 5825 5823 5821 5819 5818 5816 5815 5813 5812 5811 5810
5857 5858 5859 5859 5860 5860 5860 5860 5860 5859 5859 5858 5857 5856 5855 5854 5852 5851 5849 5847 5845 5843 5841 5839 5837 5835 5832 5830 5827 5825 5823 5821 5818 5816 5814 5812 5810 5809 5807 5806 5804 5802 5801
5853 5854 5854 5855 5855 5855 5855 5855 5854 5854 5853 5853 5852 5850 5849 5848 5846 5845 5843 5841 5839 5837 5835 5833 5830 5828 5826 5823 5821 5818 5816 5814 5811 5809 5806 5804 5802 5800 5799 5797 5795 5794 5792
5848 5849 5849 5850 5850 5850 5850 5849 5849 5848 5847 5846 5845 5844 5843 5841 5839 5838 5836 5834 5832 5830 5827 5825 5823 5821 5818 5816 5813 5811 5808 5806 5803 5801 5799 5796 5794 5792 5790 5788 5786 5784 5783
5843 5844 5844 5844 5844 5844 5843 5843 5842 5841 5841 5839 5838 5837 5835 5834 5832 5830 5828 5826 5824 5822 5820 5817 5815 5812 5810 5807 5805 5802 5800 5797 5795 5792 5790 5787 5785 5783 5781 5778 5776 5774 5773
5837 5838 5838 5838 5837 5837 5836 5836 5835 5834 5833 5832 5831 5829 5828 5826 5825 5822 5820 5818 5816 5814 5811 5809 5806 5804 5801 5798 5796 5793 5791 5788 5785 5783 5781 5778 5775 5773 5771 5768 5766 5764 5762
5831 5831 5831 5830 5830 5829 5829 5828 5827 5826 5825 5824 5822 5821 5820 5818 5816 5814 5811 5809 5807 5804 5802 5799 5797 5794 5792 5789 5786 5784 5781 5778 5776 5773 5771 5768 5765 5763 5760 5758 5756 5754 5752
5824 5823 5823 5822 5822 5821 5821 5820 5818 5817 5816 5815 5813 5812 5810 5808 5806 5804 5801 5799 5797 5794 5792 5789 5786 5784 5781 5778 5775 5773 5770 5768 5765 5763 5760 5757 5754 5752 5749 5747 5745 5743 5741
5815 5815 5814 5814 5813 5812 5811 5810 5809 5808 5807 5805 5803 5801 5800 5798 5795 5793 5790 5788 5785 5783 5780 5778 5775 5773 5770 5766 5763 5761 5759 5756 5753 5751 5749 5746 5743 5740 5738 5736 5734 5731 5730
5806 5806 5805 5805 5804 5803 5802 5800 5799 5797 5796 5794 5792 5790 5788 5786 5784 5781 5778 5775 5773 5771 5768 5765 5763 5760 5757 5754 5751 5749 5746 5744 5741 5738 5736 5734 5731 5728 5726 5723 5721 5719 5718
5797 5796 5795 5794 5793 5792 5791 5790 5788 5786 5784 5782 5780 5778 5776 5774 5771 5768 5765 5762 5760 5757 5754 5752 5749 5747 5744 5740 5737 5735 5733 5730 5727 5725 5723 5720 5718 5716 5713 5711 5709 5707 5706
5788 5787 5786 5785 5783 5782 5781 5778 5776 5774 5772 5770 5768 5766 5763 5761 5758 5755 5751 5748 5745 5742 5740 5737 5734 5731 5728 5725 5723 5721 5718 5714 5712 5711 5709 5707 5704 5702 5700 5698 5697 5695 5693
5778 5776 5776 5775 5773 5771 5769 5767 5765 5763 5760 5758 5755 5753 5750 5746 5743 5740 5737 5733 5729 5725 5723 5721 5718 5715 5712 5709 5707 5704 5701 5698 5697 5695 5694 5692 5690 5687 5686 5684 5683 5681 5680
5768 5767 5765 5763 5761 5760 5758 5755 5753 5750 5748 5744 5741 5738 5735 5731 5728 5724 5720 5716 5712 5708 5705 5702 5699 5696 5693 5691 5688 5686 5684 5682 5680 5678 5677 5676 5674 5672 5671 5670 5668 5667 5666
5759 5757 5755 5753 5751 5749 5746 5743 5740 5737 5734 5730 5727 5723 5719 5715 5711 5707 5702 5698 5694 5690 5686 5683 5680 5677 5674 5671 5669 5667 5665 5663 5661 5661 5659 5659 5658 5657 5656 5655 5654 5652 5652
5750 5747 5745 5742 5740 5737 5734 5730 5726 5723 5719 5714 5710 5706 5702 5697 5693 5688 5683 5679 5674 5669 5665 5662 5659 5655 5652 5650 5648 5646 5645 5644 5643 5642 5641 5641 5641 5641 5640 5639 5639 5638 5638
5739 5737 5733 5730 5727 5723 5720 5716 5712 5707 5703 5698 5693 5688 5682 5677 5672 5667 5662 5658 5653 5647 5643 5639 5636 5633 5630 5628 5626 5624 5624 5624 5623 5623 5623 5623 5624 5624 5624 5624 5624 5624 5624
5727 5724 5721 5717 5713 5709 5705 5700 5695 5690 5685 5680 5674 5668 5663 5657 5651 5646 5640 5635 5630 5625 5620 5616 5613 5611 5608 5606 5604 5603 5602 5602 5603 5604 5605 5606 5606 5607 5608 5609 5609 5610 5610
5715 5711 5707 5703 5698 5693 5688 5683 5677 5671 5665 5659 5654 5647 5641 5636 5630 5624 5618 5613 5608 5603 5598 5594 5591 5589 5586 5585 5583 5582 5582 5582 5584 5585 5586 5588 5590 5591 5593 5594 5595 5595 5595
5701 5697 5692 5687 5682 5676 5671 5665 5658 5652 5646 5639 5633 5627 5620 5614 5609 5603 5597 5592 5587 5582 5578 5574 5571 5569 5567 5565 5564 5563 5564 5565 5566 5567 5569 5572 5574 5576 5578 5579 5581 5582 5582
5686 5681 5676 5670 5664 5658 5652 5646 5639 5633 5627 5620 5614 5607 5601 5594 5589 5583 5578 5572 5568 5563 5559 5556 5553 5551 5549 5548 5547 5547 5547 5549 5551 5552 5554 5557 5559 5561 5564 5565 5567 5568 5570
5670 5665 5659 5653 5647 5640 5634 5628 5621 5615 5609 5603 5596 5590 5583 5577 5571 5565 5560 5555 5551 5547 5544 5540 5538 5536 5535 5533 5533 5533 5534 5535 5538 5540 5542 5544 5546 5549 5551 5553 5555 5556 5558
5654 5648 5642 5636 5630 5624 5618 5612 5606 5600 5593 5587 5581 5575 5569 5563 5556 5551 5546 5542 5538 5535 5532 5529 5526 5525 5523 5522 5522 5523 5524 5525 5527 5530 5532 5534 5536 5538 5540 5542 5544 5545 5547
5638 5632 5627 5621 5615 5609 5603 5597 5592 5586 5580 5574 5568 5563 5556 5550 5544 5539 5535 5531 5528 5525 5522 5520 5518 5516 5515 5514 5514 5514 5515 5517 5519 5521 5523 5525 5527 5529 5530 5532 5534 5536 5537
5624 5618 5613 5607 5602 5596 5591 5585 5580 5574 5569 5563 5558 5552 5546 5540 5535 5530 5526 5523 5520 5517 5515 5513 5511 5509 5508 5508 5508 5509 5510 5511 5513 5514 5516 5518 5519 5521 5523 5524 5525 5526 5527
5611 5606 5601 5596 5590 5585 5580 5575 5570 5564 5559 5554 5549 5544 5538 5533 5528 5524 5520 5517 5514 5512 5510 5508 5506 5505 5504 5504 5504 5505 5506 5507 5508 5509 5511 5512 5513 5514 5515 5516 5517 5517 5518